Weather History for Augusta Bush, GA

Change the Weather History Date:

Sunday, January 29, 2012

  Actual Average Record
Temperature  
Mean Temperature 45 °F 46 °F  
Max Temperature 60 °F 59 °F 80 °F (1957)
Min Temperature 30 °F 33 °F 14 °F (1897)
Degree Days  
Heating Degree Days 20 19  
Month to date heating degree days 457 572  
Since 1 July heating degree days 1333 1547  
Cooling Degree Days 0 0  
Month to date cooling degree days 0 0  
Year to date cooling degree days 0 0  
Moisture  
Dew Point 22 °F    
Average Humidity 48    
Maximum Humidity 82    
Minimum Humidity 14    
Precipitation  
Precipitation 0.00 in 0.13 in 2.82 in (1930)
Month to date precipitation 1.40 3.65  
Year to date precipitation 1.40 3.65  
Sea Level Pressure  
Sea Level Pressure 30.35 in    
Wind  
Wind Speed 4 mph (NW)    
Max Wind Speed 14 mph    
Max Gust Speed 17 mph    
Visibility 10 miles    
Events      
T = Trace of Precipitation, MM = Missing Value Source: NWS Daily Summary

Daily Weather History Graph

Daily Weather History Graph

Search for Another Location

Airport:

Trip Planner

Search our weather history database for the weather conditions in past years. The results will help you decide how hot, cold, wet, or windy it might be!

Date:

Astronomy

Jan. 29, 2012 Rise Set
Actual Time 7:26 AM EST 5:56 PM EST
Civil Twilight 6:59 AM EST 6:22 PM EST
Nautical Twilight 6:29 AM EST 6:52 PM EST
Astronomical Twilight 6:00 AM EST 7:21 PM EST
Moon 10:39 AM EST (1/29) No Moon Set
Length of Visible Light 11h 22m
Length of Day
10h 30m
Waxing Crescent, 36% of the Moon is Illuminated
Jan 29
Waxing Crescent
Jan 30
First Quarter
Feb 7
Full
Feb 14
Last Quarter
Feb 21
New

Hourly Weather History & Observations

Time (EST) Temp. Windchill Dew Point Humidity Pressure Visibility Wind Dir Wind Speed Gust Speed Precip Events Conditions
12:53 AM 43.0 °F 38.8 °F 34.0 °F 71% 30.25 in 10.0 mi North 6.9 mph - N/A   Clear
1:53 AM 41.0 °F 39.0 °F 33.1 °F 73% 30.26 in 10.0 mi North 3.5 mph - N/A   Clear
2:53 AM 37.0 °F 32.4 °F 32.0 °F 82% 30.29 in 10.0 mi NNW 5.8 mph - N/A   Clear
3:53 AM 39.9 °F 34.5 °F 30.0 °F 68% 30.30 in 10.0 mi North 8.1 mph - N/A   Clear
4:53 AM 37.9 °F 32.7 °F 27.0 °F 65% 30.31 in 10.0 mi NNW 6.9 mph - N/A   Clear
5:53 AM 33.1 °F - 25.0 °F 72% 30.33 in 10.0 mi Calm Calm - N/A   Clear
6:53 AM 33.1 °F - 24.1 °F 70% 30.36 in 10.0 mi Calm Calm - N/A   Clear
7:53 AM 30.9 °F - 25.0 °F 79% 30.39 in 10.0 mi Calm Calm - N/A   Clear
8:53 AM 41.0 °F 37.1 °F 25.0 °F 53% 30.41 in 10.0 mi NNW 5.8 mph - N/A   Clear
9:53 AM 46.0 °F 43.9 °F 24.1 °F 42% 30.42 in 10.0 mi North 4.6 mph - N/A   Clear
10:53 AM 50.0 °F - 24.1 °F 36% 30.42 in 10.0 mi Variable 3.5 mph - N/A   Clear
11:53 AM 53.1 °F - 21.0 °F 29% 30.41 in 10.0 mi North 4.6 mph - N/A   Clear
12:53 PM 55.0 °F - 16.0 °F 22% 30.37 in 10.0 mi Variable 3.5 mph - N/A   Clear
1:53 PM 57.2 °F - 12.2 °F 17% 30.34 in 10.0 mi NW 6.9 mph - N/A   Clear
2:53 PM 59.0 °F - 12.9 °F 16% 30.31 in 10.0 mi WNW 10.4 mph - N/A   Clear
3:53 PM 59.0 °F - 10.0 °F 14% 30.32 in 10.0 mi WNW 11.5 mph - N/A   Clear
4:53 PM 57.9 °F - 12.9 °F 17% 30.32 in 10.0 mi WNW 9.2 mph - N/A   Clear
5:53 PM 54.0 °F - 12.9 °F 20% 30.32 in 10.0 mi West 6.9 mph - N/A   Clear
6:53 PM 45.0 °F - 19.9 °F 37% 30.34 in 10.0 mi Calm Calm - N/A   Clear
7:53 PM 39.0 °F 36.8 °F 25.0 °F 57% 30.36 in 10.0 mi West 3.5 mph - N/A   Clear
8:53 PM 39.0 °F - 19.9 °F 46% 30.36 in 10.0 mi Calm Calm - N/A   Clear
9:53 PM 39.9 °F - 18.0 °F 41% 30.37 in 10.0 mi Calm Calm - N/A   Clear
10:53 PM 36.0 °F - 19.9 °F 52% 30.37 in 10.0 mi Calm Calm - N/A   Clear
11:53 PM 30.9 °F - 24.1 °F 76% 30.37 in 10.0 mi Calm Calm - N/A   Clear